Location: Unspecified
(49.2170°N, 0.0000°E)
Time: 14:19:41
(UTC+00:00)

Vanguard 2 Rocket - All Passes

Search period start: 25 January 2021 00:00
Search period end: 04 February 2021 00:00
Orbit: 554 x 3325 km, 32.9° (Epoch: 25 January)

Date Brightness Start Highest point End Pass type
(mag) Time Alt. Az. Time Alt. Az. Time Alt. Az.
25 Jan - 12:29:52 10° S 12:37:55 15° SSE 12:44:30 10° ESE daylight
25 Jan - 14:40:52 10° SW 14:52:04 26° S 14:59:38 10° ESE daylight
25 Jan - 16:56:23 10° WSW 17:05:24 27° S 17:11:18 10° SE daylight
25 Jan - 19:13:45 10° WSW 19:17:19 14° SSW 19:20:14 10° S visible
26 Jan - 11:32:28 10° SSE 11:37:25 12° SE 11:41:53 10° SE daylight
26 Jan - 13:39:51 10° SSW 13:51:45 25° SSE 14:00:10 10° ESE daylight
26 Jan - 15:54:39 10° SW 16:05:38 30° S 16:12:39 10° SE daylight
26 Jan - 18:11:29 10° WSW 18:18:11 21° SSW 18:22:55 10° SSE visible
27 Jan - 12:39:21 10° SSW 12:51:14 22° SSE 13:00:11 10° ESE daylight
27 Jan - 14:52:56 10° SW 15:05:33 32° S 15:13:43 10° ESE daylight
27 Jan - 17:09:30 10° WSW 17:18:47 27° SSW 17:24:50 10° SE visible
27 Jan - 19:29:19 10° SW 19:30:22 10° SW 19:31:21 10° SSW visible
28 Jan - 11:39:42 10° S 11:50:35 19° SSE 11:59:26 10° ESE daylight
28 Jan - 13:51:25 10° SW 14:05:10 31° SSE 14:14:27 10° ESE daylight
28 Jan - 16:07:29 10° WSW 16:19:03 32° S 16:26:21 10° SE daylight
28 Jan - 18:25:18 10° WSW 18:31:19 18° SSW 18:35:47 10° S visible
29 Jan - 10:41:33 10° S 10:49:53 14° SE 10:57:17 10° ESE daylight
29 Jan - 12:50:16 10° SSW 13:04:32 29° SSE 13:14:47 10° ESE daylight
29 Jan - 15:05:27 10° WSW 15:18:57 35° S 15:27:32 10° ESE daylight
29 Jan - 17:22:52 10° WSW 17:32:01 25° SSW 17:38:07 10° SSE visible
30 Jan - 11:49:44 10° SSW 12:03:43 26° SSE 12:14:34 10° ESE daylight
30 Jan - 14:03:34 10° SW 14:18:31 36° S 14:28:24 10° ESE daylight
30 Jan - 16:20:34 10° WSW 16:32:20 32° SSW 16:39:50 10° SE daylight
30 Jan - 18:39:44 10° WSW 18:44:16 14° SW 18:47:55 10° S visible
31 Jan - 10:50:05 10° S 11:02:51 22° SSE 11:13:36 10° ESE daylight
31 Jan - 13:01:59 10° SW 13:17:48 35° SSE 13:28:53 10° ESE daylight
31 Jan - 15:18:17 10° WSW 15:32:16 37° S 15:41:10 10° SE daylight
31 Jan - 17:36:32 10° WSW 17:45:04 22° SSW 17:51:00 10° SSE visible
01 Feb - 09:51:50 10° S 10:02:03 17° SE 10:11:21 10° ESE daylight
01 Feb - 12:00:55 10° SSW 12:16:51 32° SSE 12:28:56 10° ESE daylight
01 Feb - 14:16:07 10° WSW 14:31:50 39° S 14:42:08 10° ESE daylight
01 Feb - 16:33:52 10° WSW 16:45:29 29° SSW 16:53:04 10° SSE daylight
02 Feb - 08:57:03 10° SSE 09:01:24 11° SE 09:05:40 10° ESE daylight
02 Feb - 11:00:31 10° SSW 11:15:48 28° SSE 11:28:26 10° ESE daylight
02 Feb - 13:14:14 10° SW 13:31:02 40° S 13:42:43 10° ESE daylight
02 Feb - 15:31:21 10° WSW 15:45:29 36° SSW 15:54:34 10° SE daylight
02 Feb - 17:50:38 10° WSW 17:57:54 18° SW 18:03:20 10° S visible
03 Feb - 10:01:03 10° S 10:14:48 23° SE 10:27:07 10° ESE daylight
03 Feb - 12:12:47 10° SW 12:29:58 38° SSE 12:42:54 10° ESE daylight
03 Feb - 14:28:58 10° WSW 14:45:04 40° S 14:55:40 10° SE daylight
03 Feb - 16:47:25 10° W 16:58:27 26° SSW 17:05:57 10° SSE daylight
